Regional Weather Roundup
Issued by NWS Columbia, SC

Home | Current Version | Previous Version | Text Only | Print | Product List | Glossary On
Versions: 1 2 3 4 5 6 7 8 9 10 11 12 13 14 15 16 17 18 19 20 21 22 23 24 25 26 27
000
ASUS42 KCAE 280610
RWRCAE
REGIONAL WEATHER ROUNDUP
NATIONAL WEATHER SERVICE COLUMBIA SC
200 AM EDT TUE MAR 28 2017

NOTE: "FAIR" INDICATES FEW OR NO CLOUDS BELOW 12,000 FEET WITH NO
SIGNIFICANT WEATHER AND/OR OBSTRUCTIONS TO VISIBILITY.

NOT ALL STATIONS ARE QUALITY CONTROLLED BY THE NATIONAL
WEATHER SERVICE. USE DATA WITH CAUTION...ESPECIALLY
DEWPOINT OBSERVATIONS.

SCZ001>056-GAZ040-063>065-077-280700-
...UPSTATE SOUTH CAROLINA...

CITY           SKY/WX    TMP DP  RH WIND       PRES   REMARKS
ANDERSON       RAIN      61  57  87 NW12G21   29.99R
6HR MIN TEMP:  61; 6HR MAX TEMP:  73; 6HR PCP:  0.08;

LIBERTY        HVY RAIN  59  57  95 NW10      29.99F
6HR MIN TEMP:  59; 6HR MAX TEMP:  71;

SPARTANBURG    CLOUDY    64  57  77 S5        29.94S
CLEMSON        HVY RAIN  62  58  86 NW9       30.00S FOG
6HR MIN TEMP:  62; 6HR MAX TEMP:  74; 6HR PCP:  0.25;

GREENVILLE     HVY RAIN  60  56  86 NW13G20   29.99R FOG
6HR MIN TEMP:  60; 6HR MAX TEMP:  74; 6HR PCP:  0.19;

GREENWOOD      CLOUDY    66  59  78 S12       29.97F
6HR MIN TEMP:  65; 6HR MAX TEMP:  72;

GREER          HVY RAIN  59  56  89 W14G22    29.98R FOG
6HR MIN TEMP:  59; 6HR MAX TEMP:  72; 6HR PCP:  0.05;

ROCK HILL      CLOUDY    66  59  78 S12       29.96S
6HR MIN TEMP:  64; 6HR MAX TEMP:  73;

CHESTER        MOCLDY    64  59  82 S9        29.97S
LAURENS        MOCLDY    66  61  82 S8        29.96S


...CENTRAL SOUTH CAROLINA...

CITY           SKY/WX    TMP DP  RH WIND       PRES   REMARKS
COLUMBIA APT   CLOUDY    67  57  70 S10       29.97F
6HR MIN TEMP:  67; 6HR MAX TEMP:  74;

COLUMBIA OWENS PTCLDY    66  56  70 S7        29.99F
6HR MIN TEMP:  66; 6HR MAX TEMP:  74;

MCENTIRE ANGB  MOCLDY    65  57  76 S7        29.99F
6HR MIN TEMP:  65; 6HR MAX TEMP:  72;

ORANGEBURG     CLOUDY    63  58  83 S9        30.00F
6HR MIN TEMP:  63; 6HR MAX TEMP:  73;

SUMTER SHAW    MOCLDY    64  57  76 S9        29.97F
6HR MIN TEMP:  63; 6HR MAX TEMP:  74;

NEWBERRY       CLOUDY    64  61  88 S6        30.00R
AIKEN          FAIR      63  55  77 S7        30.03S
BARNWELL       FAIR      66  59  77 CALM      30.01S
MANNING        FAIR      63  57  82 S5        30.01F
CAMDEN         FAIR      64  57  77 CALM      29.99S
LANCASTER      CLOUDY    64  63  94 S8        29.97S
WINNSBORO      PTCLDY    64  59  82 S10       29.98S


...EASTERN AND COASTAL SOUTH CAROLINA...

CITY           SKY/WX    TMP DP  RH WIND       PRES   REMARKS
MYRTLE BEACH   CLOUDY    65  61  87 SW9       30.02F
6HR MIN TEMP:  64; 6HR MAX TEMP:  67;

N MYRTLE BCH   MOCLDY    65  61  87 S10       30.00F
6HR MIN TEMP:  64; 6HR MAX TEMP:  69;

CONWAY         CLOUDY    61  57  88 SW3       30.01F
MARION         FAIR      61  55  82 S5        30.01S
HARTSVILLE     FAIR      61  55  82 S6        29.99S
FLORENCE       CLEAR     62  58  86 S6        30.00F
6HR MIN TEMP:  62; 6HR MAX TEMP:  72;

DARLINGTON     CLEAR     63  58  83 S8        30.00S
6HR MIN TEMP:  63; 6HR MAX TEMP:  72;

CHARLESTON APT PTCLDY    63  58  83 S6        30.02S
6HR MIN TEMP:  62; 6HR MAX TEMP:  68;

MOUNT PLEASANT MOCLDY    66  61  82 S7        30.02F
WALTERBORO     PTCLDY    61  59  94 CALM      30.03S
BEAUFORT       MOCLDY    66  63  90 S5        30.01F
6HR MIN TEMP:  66; 6HR MAX TEMP:  69;



...EASTERN GEORGIA...

CITY           SKY/WX    TMP DP  RH WIND       PRES   REMARKS
AUGUSTA BUSH F PTCLDY    69  58  67 S8        29.98S
6HR MIN TEMP:  69; 6HR MAX TEMP:  77;

AUGUSTA DANIEL PTCLDY    69  56  62 S8        30.00R
6HR MIN TEMP:  69; 6HR MAX TEMP:  79;

THOMSON        MOCLDY    67  60  76 W6        30.02F
6HR MIN TEMP:  63; 6HR MAX TEMP:  74;

WASHINGTON     FAIR      68  59  73 S3        29.97S
CLAXTON        FAIR     N/A N/A N/A S5        30.02F
SYLVANIA       CLOUDY   N/A N/A N/A SW6       30.03S
STATESBORO     MOCLDY    67  61  79 S7        30.01F
6HR MIN TEMP:  67; 6HR MAX TEMP:  74;

SAVANNAH       MOCLDY    66  59  78 S8        30.03S
6HR MIN TEMP:  64; 6HR MAX TEMP:  70;



...SOUTHERN NORTH CAROLINA...

CITY           SKY/WX    TMP DP  RH WIND       PRES   REMARKS
CHARLOTTE      CLOUDY    67  59  75 S16       29.95S
6HR MIN TEMP:  65; 6HR MAX TEMP:  74; 6HR PCP: TRACE;

MONROE         MOCLDY    65  57  75 S10       29.95F
6HR MIN TEMP:  65; 6HR MAX TEMP:  72;

WADESBORO      CLOUDY    65  57  73 S8        29.97S
ROCKINGHAM     CLEAR     63  59  86 S9        29.98F
RUTHERFORDTON  TSTM      59  59 100 NW13G18   29.98R
ASHEVILLE      CLOUDY    57  53  86 CALM      29.99F
6HR MIN TEMP:  57; 6HR MAX TEMP:  69; 6HR PCP:  0.31;


$$




USA.gov is the U.S. government's official web portal to all federal, state and local government web resources and services.